User: anonymous   Login
Location: Deer Lake
(49.1830°N, 57.4330°W)
Time: 03:19:55
(UTC-02:-30)
Language:

Cosmos 1707 - Orbit

View from above orbital plane
View from above orbital plane
View from above satellite
View from above satellite

Ground track
Ground track

The orbit data is extracted from the following two-line orbital elements,

1 16326U 85113A   15087.79667016  .00005379  00000-0  32322-3 0  9998
2 16326 082.5133 284.1809 0011129 218.2720 141.7721 15.10642115594715
Epoch (UTC): 28 March 2015 19:07:12
Eccentricity: 0.0011129
inclination: 82.5133°
perigee height: 526 km
apogee height: 542 km
right ascension of ascending node: 284.1809°
argument of perigee: 218.2720°
revolutions per day: 15.10642115
mean anomaly at epoch: 141.7721°
orbit number at epoch: 59471

The dashed part of the orbit path shows where the satellite is in the earth's shadow,  

DLR